Regional Weather Roundup
Issued by NWS

Home | Current Version | Previous Version | Text Only | Print | Product List | Glossary On
Versions: 1 2 3 4 5 6 7 8 9 10 11 12 13 14 15 16 17 18 19 20 21 22 23 24 25 26 27 28
000
ASUS45 KBOI 251710
RWRID

IDAHO REGIONAL WEATHER ROUNDUP
NATIONAL WEATHER SERVICE BOISE ID
1100 AM MDT THU MAY 25 2017

NOTE: "FAIR" INDICATES FEW OR NO CLOUDS BELOW 12000 FEET
WITH NO SIGNIFICANT WEATHER AND/OR OBSTRUCTIONS TO VISIBILITY

IDZ012-014-251800-
SOUTHWEST IDAHO


CITY           SKY/WX    TMP DP  RH WIND       PRES   REMARKS
BOISE          SUNNY     57  34  41 W10       29.76F
CALDWELL       SUNNY     60  36  40 W9        29.77F
MOUNTAIN HOME  SUNNY     59  31  34 NW14      29.75F
$$

IDZ016-017-251800-
SOUTHCENTRAL IDAHO


CITY           SKY/WX    TMP DP  RH WIND       PRES   REMARKS
BURLEY         MOSUNNY   52  30  43 W12       29.77S
JEROME         SUNNY     54  31  41 SW16G24   29.77F
TWIN FALLS     SUNNY     54  32  43 W15G22    29.77F
$$

IDZ019>023-251800-
SOUTHEAST IDAHO


CITY           SKY/WX    TMP DP  RH WIND       PRES   REMARKS
IDAHO FALLS    SUNNY     53  23  31 NW9       29.79R
POCATELLO      MOSUNNY   53  31  42 W8        29.79S
REXBURG        SUNNY     53  20  27 W7        29.78R
$$

IDZ006-010-011-018-031-032-251800-
CENTRAL IDAHO MOUNTAINS


CITY           SKY/WX    TMP DP  RH WIND       PRES   REMARKS
MCCALL         SUNNY     50  26  39 N8        29.76F
HAILEY         MOSUNNY   52  30  43 S9G18     29.78S
STANLEY          N/A     47  23  38 VRB3      29.78F
SALMON         PTSUNNY   52  28  40 N5        29.78F
CHALLIS        CLOUDY    49  26  41 NW5       29.79S
$$

IDZ002-004-006-007-026-251800-
NORTHERN IDAHO


CITY           SKY/WX    TMP DP  RH WIND       PRES   REMARKS
LEWISTON       CLOUDY    57  39  51 N5        29.84R
LOWELL           N/A     58  38  47 CALM      29.82F
COEUR D`ALENE  CLOUDY    55  39  54 CALM      29.84R
MULLAN PASS    PTSUNNY   46  29  51 CALM      29.82R
$$




USA.gov is the U.S. government's official web portal to all federal, state and local government web resources and services.